Regional Weather Roundup
Issued by NWS

Home | Current Version | Previous Version | Graphics & Text | Print | Product List | Glossary On
Versions: 1 2 3 4 5 6 7 8 9 10 11 12 13 14 15 16 17 18 19 20 21 22 23 24 25 26 27 28 29 30 31 32 33 34 35 36 37 38 39 40 41 42 43 44 45 46 47 48 49 50
000
ASUS43 KLMK 221610
RWRKY
KENTUCKY REGIONAL WEATHER ROUNDUP
NATIONAL WEATHER SERVICE LOUISVILLE KY
1100 AM EST MON DEC 22 2014

NOTE "FAIR" INDICATES FEW OR NO CLOUDS BELOW 12,000 FEET
WITH NO SIGNIFICANT WEATHER AND/OR OBSTRUCTIONS TO VISIBILITY.

KYZ001>023-026-027-061>063-070>075-221700-
WESTERN AND SOUTH CENTRAL KENTUCKY

CITY           SKY/WX    TMP DP  RH WIND       PRES   REMARKS
PADUCAH        CLOUDY    49  46  90 SE8       29.82F FOG
HENDERSON      CLOUDY    46  39  76 SE9       29.86S
OWENSBORO      CLOUDY    49  44  83 SE13      29.89F
HOPKINSVILLE   NOT AVBL
BOWLING GREEN  CLOUDY    53  43  68 SE9       29.92F
GLASGOW        PTSUNNY   52  42  69 S9        29.93S
$$

KYZ024-025-028>034-038-045-046-053-221700-
NORTH CENTRAL KENTUCKY

CITY           SKY/WX    TMP DP  RH WIND       PRES   REMARKS
LOUISVILLE/SDF CLOUDY    45  36  70 S6        29.95F
LOUISVILLE/LOU CLOUDY    47  37  68 S5        29.96S
FORT KNOX      NOT AVBL
$$

KYZ035>037-039>044-047>052-055>060-089>105-221700-
NORTHEAST KENTUCKY

CITY           SKY/WX    TMP DP  RH WIND       PRES   REMARKS
LEXINGTON      MOSUNNY   50  36  58 SE9       29.98F
COVINGTON      NOT AVBL
FRANKFORT      MOSUNNY   45  35  68 SE6       29.95F
$$

KYZ054-064>069-076>088-106>120-221700-
SOUTHEAST KENTUCKY

CITY           SKY/WX    TMP DP  RH WIND       PRES   REMARKS
JACKSON        CLOUDY    46  36  68 CALM      30.00F
LONDON         PTSUNNY   53  39  59 SE7       29.98F
SOMERSET       CLOUDY    46  37  71 SE5       29.99F
MIDDLESBORO    CLOUDY    50  39  67 S3        30.00F
MONTICELLO     CLOUDY    51  40  66 SE8       30.00F
$$




USA.gov is the U.S. government's official web portal to all federal, state and local government web resources and services.